This is the latest recevied weather packets stored in our database for station/object OM7ABC-17. If no packets are shown the sender has not sent any weather packets the latest 1 day(s).
| Time | Temp. | Humidity | Pressure | Rain* | Wind** | Luminosity | Snow |
|---|---|---|---|---|---|---|---|
| 1778054179 | 25° C | 32% | 987.2 hPa | - | - | - | - |
| 1778053279 | 25° C | 32% | 987.2 hPa | - | - | - | - |
| 1778052379 | 25° C | 32% | 987.3 hPa | - | - | - | - |
| 1778051479 | 25° C | 32% | 987.4 hPa | - | - | - | - |
| 1778050579 | 25° C | 32% | 987.2 hPa | - | - | - | - |
| 1778049679 | 25° C | 32% | 987.2 hPa | - | - | - | - |
| 1778048779 | 25° C | 32% | 987.3 hPa | - | - | - | - |
| 1778047879 | 25° C | 32% | 987.3 hPa | - | - | - | - |
| 1778046979 | 24.44° C | 32% | 987.3 hPa | - | - | - | - |
| 1778046079 | 24.44° C | 32% | 987.1 hPa | - | - | - | - |
| 1778045179 | 24.44° C | 31% | 987.3 hPa | - | - | - | - |
| 1778044279 | 23.89° C | 31% | 987.1 hPa | - | - | - | - |
| 1778043379 | 23.89° C | 31% | 987.1 hPa | - | - | - | - |
| 1778042478 | 23.89° C | 30% | 987.1 hPa | - | - | - | - |
| 1778041578 | 23.33° C | 30% | 986.9 hPa | - | - | - | - |
| 1778040678 | 23.33° C | 30% | 987 hPa | - | - | - | - |
| 1778039778 | 23.33° C | 30% | 986.8 hPa | - | - | - | - |
| 1778038878 | 23.33° C | 30% | 986.6 hPa | - | - | - | - |
| 1778037978 | 22.78° C | 30% | 986.7 hPa | - | - | - | - |
| 1778037078 | 22.78° C | 30% | 986.5 hPa | - | - | - | - |
| 1778036178 | 22.78° C | 30% | 986.5 hPa | - | - | - | - |
| 1778035278 | 23.33° C | 30% | 986.6 hPa | - | - | - | - |
| 1778034378 | 23.33° C | 30% | 986.5 hPa | - | - | - | - |
| 1778033478 | 23.33° C | 29% | 986.6 hPa | - | - | - | - |
| 1778032578 | 23.33° C | 29% | 986.5 hPa | - | - | - | - |
* Rain since midnight (hover to see other rain measurements)
** Current wind speed in m/s (hover to see current wind gust speed)